When you browse on this site, cookies collect data to enhance your experience and personalize the content and advertising you see.
Visit our Privacy Policy to learn more. By continuing to use the site, you agree to this use of cookies and data.
  • In Portugal
  • List of Countries
  • For 7 days
  • Water Temperature
  • Satellite Maps
  • Weather Map
  • Weather Widgets
  • user-avatar
    Login

    Hourly Weather Plovdiv

    Today, 17 November, Saturday

    Time Temperature Precipitation Wind Pressure Humidity
    00:00 +4°C° 0 mm 1 mps 747 mmHg 82%
    01:00 +3°C° 0 mm 1 mps 747 mmHg 83%
    02:00 +2°C° 0 mm 2 mps 747 mmHg 82%
    03:00 +2°C° 0 mm 1 mps 747 mmHg 83%
    04:00 +2°C° 0 mm 1 mps 747 mmHg 83%
    05:00 +2°C° 0 mm 1 mps 747 mmHg 84%
    06:00 +2°C° 0 mm 1 mps 747 mmHg 82%
    07:00 +2°C° 0 mm 1 mps 747 mmHg 80%
    08:00 +3°C° 0 mm 1 mps 747 mmHg 76%
    09:00 +4°C° 0 mm 1 mps 747 mmHg 70%
    10:00 +5°C° 0 mm 1 mps 747 mmHg 64%
    11:00 +6°C° 0 mm 1 mps 747 mmHg 57%
    12:00 +6°C° 0 mm 1 mps 747 mmHg 56%
    13:00 +6°C° 0 mm 2 mps 746 mmHg 55%
    14:00 +6°C° 0 mm 2 mps 746 mmHg 55%
    15:00 +5°C° 0 mm 2 mps 746 mmHg 60%
    16:00 +5°C° 0 mm 2 mps 746 mmHg 64%
    17:00 +5°C° 0 mm 1 mps 746 mmHg 69%
    18:00 +4°C° 0 mm 1 mps 746 mmHg 72%
    19:00 +4°C° 0 mm 1 mps 747 mmHg 76%
    20:00 +4°C° 0 mm 1 mps 747 mmHg 79%
    21:00 +4°C° 0 mm 1 mps 747 mmHg 79%
    22:00 +4°C° 0 mm 1 mps 747 mmHg 80%
    23:00 +4°C° 0 mm 1 mps 747 mmHg 80%

    Tomorrow, 18 November, Sunday

    Time Temperature Precipitation Wind Pressure Humidity
    00:00 +4°C° 0 mm 1 mps 746 mmHg 80%
    01:00 +4°C° 0 mm 1 mps 746 mmHg 81%
    02:00 +4°C° 0 mm 1 mps 746 mmHg 82%
    03:00 +5°C° 0 mm 1 mps 746 mmHg 82%
    04:00 +5°C° 0 mm 1 mps 745 mmHg 82%
    05:00 +5°C° 0 mm 1 mps 745 mmHg 82%
    06:00 +5°C° 0.1 mm 1 mps 745 mmHg 83%
    07:00 +6°C° 0.1 mm 1 mps 744 mmHg 83%
    08:00 +6°C° 0.1 mm 1 mps 744 mmHg 83%
    09:00 +7°C° 0.1 mm 1 mps 744 mmHg 82%
    10:00 +7°C° 0.1 mm 1 mps 743 mmHg 80%
    11:00 +7°C° 0.1 mm 2 mps 743 mmHg 79%
    12:00 +7°C° 0.2 mm 2 mps 742 mmHg 80%
    13:00 +7°C° 0.2 mm 2 mps 741 mmHg 81%
    14:00 +7°C° 0.2 mm 2 mps 740 mmHg 82%
    15:00 +7°C° 1 mm 2 mps 740 mmHg 85%
    16:00 +6°C° 1 mm 2 mps 739 mmHg 88%
    17:00 +7°C° 1 mm 1 mps 739 mmHg 91%
    18:00 +7°C° 2 mm 1 mps 738 mmHg 91%
    19:00 +7°C° 2 mm 1 mps 737 mmHg 92%
    20:00 +7°C° 2 mm 1 mps 737 mmHg 92%
    21:00 +7°C° 2 mm 1 mps 736 mmHg 92%
    22:00 +7°C° 2 mm 1 mps 736 mmHg 92%
    23:00 +7°C° 2 mm 1 mps 735 mmHg 92%

    Day after tomorrow, 19 November, Monday

    Time Temperature Precipitation Wind Pressure Humidity
    00:00 +7°C° 1.3 mm 1 mps 735 mmHg 92%
    01:00 +7°C° 1.3 mm 1 mps 734 mmHg 92%
    02:00 +7°C° 1.3 mm 1 mps 734 mmHg 92%
    03:00 +7°C° 0.3 mm 1 mps 734 mmHg 92%
    04:00 +7°C° 0.3 mm 1 mps 734 mmHg 91%
    05:00 +7°C° 0.3 mm 1 mps 733 mmHg 90%
    06:00 +7°C° 0.1 mm 1 mps 734 mmHg 90%
    07:00 +7°C° 0.1 mm 1 mps 734 mmHg 89%
    08:00 +7°C° 0.1 mm 1 mps 734 mmHg 88%
    09:00 +8°C° 0 mm 1 mps 735 mmHg 86%
    10:00 +10°C° 0 mm 1 mps 736 mmHg 84%
    11:00 +11°C° 0 mm 1 mps 736 mmHg 81%
    12:00 +11°C° 0 mm 1 mps 736 mmHg 80%
    13:00 +12°C° 0 mm 1 mps 736 mmHg 79%
    14:00 +12°C° 0 mm 1 mps 736 mmHg 77%
    15:00 +11°C° 0 mm 1 mps 737 mmHg 80%
    16:00 +10°C° 0 mm 1 mps 737 mmHg 83%
    17:00 +8°C° 0 mm 1 mps 737 mmHg 86%
    18:00 +8°C° 0 mm 1 mps 738 mmHg 86%
    19:00 +8°C° 0 mm 1 mps 739 mmHg 86%
    20:00 +7°C° 0 mm 1 mps 739 mmHg 87%
    21:00 +7°C° 0 mm 1 mps 739 mmHg 86%
    22:00 +7°C° 0 mm 1 mps 740 mmHg 85%
    23:00 +6°C° 0 mm 1 mps 740 mmHg 85%

    20 November, Tuesday

    Time Temperature Precipitation Wind Pressure Humidity
    00:00 +6°C° 0 mm 1 mps 741 mmHg 85%
    01:00 +6°C° 0 mm 1 mps 741 mmHg 85%
    02:00 +6°C° 0 mm 1 mps 741 mmHg 86%
    03:00 +6°C° 0 mm 1 mps 741 mmHg 87%
    04:00 +6°C° 0 mm 1 mps 741 mmHg 88%
    05:00 +7°C° 0 mm 1 mps 741 mmHg 88%
    06:00 +7°C° 0.1 mm 1 mps 741 mmHg 89%
    07:00 +7°C° 0.1 mm 1 mps 741 mmHg 89%
    08:00 +6°C° 0.1 mm 2 mps 741 mmHg 90%
    09:00 +7°C° 0 mm 2 mps 741 mmHg 89%
    10:00 +8°C° 0 mm 2 mps 741 mmHg 87%
    11:00 +9°C° 0 mm 2 mps 741 mmHg 86%
    12:00 +9°C° 0 mm 2 mps 740 mmHg 86%
    13:00 +10°C° 0 mm 2 mps 740 mmHg 86%
    14:00 +10°C° 0 mm 2 mps 740 mmHg 87%
    15:00 +10°C° 0.1 mm 2 mps 739 mmHg 89%
    16:00 +9°C° 0.1 mm 2 mps 739 mmHg 91%
    17:00 +9°C° 0.1 mm 2 mps 739 mmHg 93%
    18:00 +9°C° 0.2 mm 2 mps 738 mmHg 94%
    19:00 +9°C° 0.2 mm 2 mps 738 mmHg 94%
    20:00 +9°C° 0.2 mm 2 mps 738 mmHg 95%
    21:00 +9°C° 0.1 mm 2 mps 738 mmHg 95%
    22:00 +9°C° 0.1 mm 2 mps 738 mmHg 96%
    23:00 +10°C° 0.1 mm 1 mps 738 mmHg 96%

    21 November, Wednesday

    Time Temperature Precipitation Wind Pressure Humidity
    00:00 +10°C° 0.1 mm 2 mps 737 mmHg 97%
    01:00 +10°C° 0.1 mm 2 mps 736 mmHg 97%
    02:00 +10°C° 0.1 mm 2 mps 736 mmHg 97%
    03:00 +10°C° 0.2 mm 2 mps 735 mmHg 97%
    04:00 +12°C° 0.2 mm 2 mps 734 mmHg 97%
    05:00 +12°C° 0.2 mm 2 mps 734 mmHg 97%
    06:00 +12°C° 0.7 mm 2 mps 733 mmHg 97%
    07:00 +12°C° 0.7 mm 2 mps 733 mmHg 97%
    08:00 +12°C° 0.7 mm 2 mps 733 mmHg 97%
    09:00 +13°C° 0.6 mm 1 mps 733 mmHg 96%
    10:00 +13°C° 0.6 mm 1 mps 733 mmHg 95%
    11:00 +14°C° 0.6 mm 1 mps 733 mmHg 93%
    12:00 +14°C° 0.4 mm 1 mps 733 mmHg 91%
    13:00 +14°C° 0.4 mm 2 mps 733 mmHg 88%
    14:00 +15°C° 0.4 mm 2 mps 733 mmHg 86%
    15:00 +14°C° 0.5 mm 2 mps 733 mmHg 87%
    16:00 +13°C° 0.5 mm 2 mps 733 mmHg 89%
    17:00 +12°C° 0.5 mm 2 mps 734 mmHg 90%
    18:00 +12°C° 0.2 mm 2 mps 734 mmHg 90%
    19:00 +10°C° 0.2 mm 2 mps 735 mmHg 89%
    20:00 +10°C° 0.2 mm 2 mps 735 mmHg 89%
    21:00 +10°C° 0 mm 2 mps 736 mmHg 88%
    22:00 +9°C° 0 mm 2 mps 736 mmHg 88%
    23:00 +9°C° 0 mm 2 mps 737 mmHg 88%

    22 November, Thursday

    Time Temperature Precipitation Wind Pressure Humidity
    00:00 +9°C° 0.1 mm 2 mps 737 mmHg 88%
    01:00 +9°C° 0.1 mm 2 mps 738 mmHg 88%
    02:00 +9°C° 0.1 mm 2 mps 738 mmHg 88%
    03:00 +9°C° 0.1 mm 2 mps 738 mmHg 88%
    04:00 +9°C° 0.1 mm 2 mps 739 mmHg 88%
    05:00 +9°C° 0.1 mm 2 mps 739 mmHg 89%
    06:00 +9°C° 0 mm 2 mps 739 mmHg 89%
    07:00 +9°C° 0 mm 2 mps 740 mmHg 89%
    08:00 +9°C° 0 mm 2 mps 740 mmHg 89%
    09:00 +11°C° 0 mm 1 mps 741 mmHg 84%
    10:00 +12°C° 0 mm 1 mps 741 mmHg 79%
    11:00 +14°C° 0 mm 1 mps 741 mmHg 74%
    12:00 +14°C° 0 mm 1 mps 741 mmHg 72%
    13:00 +14°C° 0 mm 1 mps 741 mmHg 71%
    14:00 +14°C° 0 mm 1 mps 741 mmHg 70%
    15:00 +13°C° 0 mm 1 mps 742 mmHg 75%
    16:00 +12°C° 0 mm 1 mps 742 mmHg 80%
    17:00 +11°C° 0 mm 1 mps 742 mmHg 85%
    18:00 +11°C° 0 mm 1 mps 743 mmHg 86%
    19:00 +11°C° 0 mm 1 mps 743 mmHg 88%
    20:00 +10°C° 0 mm 1 mps 743 mmHg 89%
    21:00 +10°C° 0 mm 1 mps 744 mmHg 90%
    22:00 +10°C° 0 mm 1 mps 744 mmHg 90%
    23:00 +8°C° 0 mm 0 mps 744 mmHg 91%
    Show more